Hourly Data Report for October 25, 2014

All times are specified in Local Standard Time (LST). Add 1 hour to adjust for Daylight Saving Time where and when it is observed.

QIKIQTARJUAQ A
NUNAVUT

67°32'48.000" N
64°01'54.000" W
5.50 m
2400577
YVM

Download Data

Hourly Data (October 2014)
Hourly Data Report for October 25, 2014
Temp Definition
°C
Dew Point Temp Definition
°C
Rel Hum Definition
%
Wind Dir Definition
10's deg

Wind Spd Definition
km/h
Visibility Definition
km
Stn Press Definition
kPa
Hmdx Definition


Wind Chill Definition


Weather Definition


TIME
00:00 Legend Double Dagger -7.0 -12.7 64 33 21 16.1 101.54   -14 LegendNANA
01:00 Legend Double Dagger -7.6 -13.8 61 32 24 16.1 101.59   -16 LegendNANA
02:00 Legend Double Dagger -7.7 -12.7 68 33 17 16.1 101.66   -14 LegendNANA
03:00 Legend Double Dagger -9.3 -15.9 59 LegendMM 8 16.1 101.66   -14 LegendNANA
04:00 Legend Double Dagger -8.4 -14.8 60 18 18 16.1 101.66   -15 LegendNANA
05:00 Legend Double Dagger -7.9 -14.0 62 18 18 16.1 101.67   -15 LegendNANA
06:00 Legend Double Dagger -7.6 -14.6 58 17 5 16.1 101.69   -10 LegendNANA
07:00 Legend Double Dagger -7.3 -14.3 58   0 16.1 101.72     LegendNANA
08:00 Legend Double Dagger -6.2 -11.9 65 4 15 16.1 101.71   -12 LegendNANA
09:00 Legend Double Dagger -6.5 -11.5 68 31 11 11.3 101.76   -11 Snow
10:00 Legend Double Dagger -7.0 -11.1 73 LegendMM 5 16.1 101.76   -10 LegendNANA
11:00 Legend Double Dagger -6.8 -10.0 78 33 9 12.9 101.78   -11 Snow
12:00 Legend Double Dagger -7.4 -10.6 78 13 5 16.1 101.77   -10 LegendNANA
13:00 Legend Double Dagger -7.5 -10.9 77 14 8 16.1 101.80   -12 LegendNANA
14:00 Legend Double Dagger -7.0 -11.0 73 13 5 16.1 101.85   -10 LegendNANA
15:00 Legend Double Dagger -6.1 -10.3 72 35 11 16.1 101.89   -11 LegendNANA
16:00 Legend Double Dagger -6.3 -11.4 67 35 11 16.1 101.90   -11 LegendNANA
17:00 Legend Double Dagger -9.4 -13.4 73 14 8 16.1 101.90   -14 LegendNANA
18:00 Legend Double Dagger -9.8 -13.1 77 14 9 16.1 101.91   -15 LegendNANA
19:00 Legend Double Dagger -11.0 -14.3 77 14 9 16.1 101.90   -16 LegendNANA
20:00 Legend Double Dagger -8.4 -12.4 73 19 17 16.1 101.90   -15 LegendNANA
21:00 Legend Double Dagger -8.0 -12.8 68 18 18 16.1 101.88   -15 LegendNANA
22:00 Legend Double Dagger -9.1 -12.8 75 15 8 16.1 101.90   -13 LegendNANA
23:00 Legend Double Dagger -10.5 -13.7 78 14 9 16.1 101.88   -15 LegendNANA

Notes on Data Quality.

Legend

  • E = Estimated
  • M = Missing
  • NA = Not Available
  • ‡ = Partner data that is not subject to review by the National Climate Archives
Date modified: